Weather History for KAMG - November, 2012

Change the Weather History Date:

Tuesday, November 13, 2012

  Actual Average Record
Temperature  
Mean Temperature 66 °F 60 °F  
Max Temperature 73 °F 72 °F 83 °F (1955)
Min Temperature 58 °F 49 °F 28 °F (1963)
Degree Days  
Heating Degree Days 0 6  
Month to date heating degree days 80 62  
Since 1 July heating degree days 115 112  
Cooling Degree Days 1 1  
Month to date cooling degree days 10 25  
Year to date cooling degree days 2658 2450  
Growing Degree Days 16 (Base 50)    
Moisture  
Dew Point 59 °F    
Average Humidity 79    
Maximum Humidity 97    
Minimum Humidity 61    
Precipitation  
Precipitation 0.00 in 0.07 in 0.80 in (1997)
Month to date precipitation 0.19 1.05  
Year to date precipitation 33.54 41.93  
Snow  
Snow 0.00 in 0.00 in 0.00 in ()
Month to date snowfall 0.0 0.0  
Since 1 July snowfall 0.0 0.0  
Since 1 September snowfall 0.0 0.0  
Snow Depth 0.00 in    
Sea Level Pressure  
Sea Level Pressure 30.19 in    
Wind  
Wind Speed 4 mph (NNW)    
Max Wind Speed 12 mph    
Max Gust Speed 17 mph    
Visibility 6 miles    
Events Fog    
T = Trace of Precipitation, MM = Missing Value Source: NWS Daily Summary

Daily Weather History Graph

Daily Weather History Graph

Search for Another Location

Airport or City:

Trip Planner

Search our weather history database for the weather conditions in past years. The results will help you decide how hot, cold, wet, or windy it might be!

Date:

Astronomy

Nov. 13, 2012 Rise Set
Actual Time 6:56 AM EST 5:31 PM EST
Civil Twilight 6:30 AM EST 5:57 PM EST
Nautical Twilight 6:01 AM EST 6:26 PM EST
Astronomical Twilight 5:32 AM EST 6:55 PM EST
Moon 6:32 AM EST (11/13) 5:25 PM EST (11/13)
Length of Visible Light 11h 26m
Length of Day
10h 35m
Waning Crescent, 0% of the Moon is Illuminated
Nov 13
Waning Crescent
Nov 13
New
Nov 20
First Quarter
Nov 28
Full
Dec 6
Last Quarter

Hourly Weather History & Observations

Time (EST) Temp. Dew Point Humidity Pressure Visibility Wind Dir Wind Speed Gust Speed Precip Events Conditions
12:53 AM 61.0 °F 59.0 °F 93% 30.19 in 9.0 mi Calm Calm - N/A   Mostly Cloudy
1:07 AM 60.8 °F 59.0 °F 94% 30.19 in 2.5 mi Calm Calm - N/A   Overcast
1:14 AM 60.8 °F 59.0 °F 94% 30.19 in 6.0 mi Calm Calm - N/A   Overcast
1:53 AM 61.0 °F 59.0 °F 93% 30.18 in 7.0 mi Calm Calm - N/A   Overcast
2:23 AM 60.8 °F 57.2 °F 88% 30.17 in 1.8 mi Calm Calm - N/A   Scattered Clouds
2:36 AM 59.0 °F 57.2 °F 94% 30.17 in 0.5 mi Calm Calm - N/A Fog Fog
2:45 AM 60.8 °F 59.0 °F 94% 30.17 in 2.0 mi Calm Calm - N/A   Mostly Cloudy
2:53 AM 60.1 °F 57.9 °F 93% 30.16 in 2.5 mi Calm Calm - N/A   Overcast
3:16 AM 60.8 °F 57.2 °F 88% 30.16 in 0.8 mi Calm Calm - N/A   Overcast
3:34 AM 60.8 °F 57.2 °F 88% 30.16 in 1.2 mi Calm Calm - N/A   Overcast
3:38 AM 60.8 °F 57.2 °F 88% 30.16 in 3.0 mi Calm Calm - N/A   Overcast
3:53 AM 60.1 °F 57.9 °F 93% 30.16 in 4.0 mi Calm Calm - N/A   Overcast
4:05 AM 60.8 °F 57.2 °F 88% 30.16 in 1.8 mi Calm Calm - N/A   Overcast
4:25 AM 60.8 °F 59.0 °F 94% 30.17 in 6.0 mi WNW 3.5 mph - N/A   Overcast
4:50 AM 62.6 °F 60.8 °F 94% 30.17 in 6.0 mi WNW 3.5 mph - N/A   Overcast
4:53 AM 63.0 °F 61.0 °F 93% 30.17 in 6.0 mi NW 4.6 mph - N/A   Overcast
5:11 AM 62.6 °F 60.8 °F 94% 30.18 in 5.0 mi Calm Calm - N/A   Overcast
5:53 AM 62.1 °F 60.1 °F 93% 30.17 in 2.5 mi Calm Calm - N/A   Overcast
5:55 AM 62.6 °F 60.8 °F 94% 30.17 in 3.0 mi NNW 3.5 mph - N/A   Overcast
6:53 AM 64.0 °F 62.1 °F 93% 30.19 in 3.0 mi NNW 4.6 mph - N/A   Overcast
7:08 AM 64.4 °F 62.6 °F 94% 30.19 in 4.0 mi Variable 3.5 mph - N/A   Overcast
7:28 AM 64.4 °F 62.6 °F 94% 30.20 in 6.0 mi North 3.5 mph - N/A   Overcast
7:35 AM 64.4 °F 62.6 °F 94% 30.20 in 6.0 mi NNW 5.8 mph - N/A   Overcast
7:53 AM 64.0 °F 62.1 °F 93% 30.21 in 6.0 mi North 5.8 mph - N/A   Overcast
8:14 AM 64.4 °F 62.6 °F 94% 30.21 in 4.0 mi NNW 8.1 mph - N/A   Overcast
8:40 AM 62.6 °F 60.8 °F 94% 30.23 in 2.5 mi NW 9.2 mph - N/A   Overcast
8:50 AM 62.6 °F 60.8 °F 94% 30.23 in 1.5 mi NW 8.1 mph - N/A   Overcast
8:53 AM 62.1 °F 60.1 °F 93% 30.23 in 1.8 mi NNW 8.1 mph - N/A   Overcast
9:16 AM 62.6 °F 60.8 °F 94% 30.23 in 2.5 mi NNW 5.8 mph - N/A   Overcast
9:23 AM 62.6 °F 59.0 °F 88% 30.24 in 3.0 mi NNW 4.6 mph - N/A   Overcast
9:41 AM 62.6 °F 57.2 °F 82% 30.24 in 6.0 mi NW 9.2 mph - N/A   Haze
9:53 AM 64.0 °F 59.0 °F 84% 30.23 in 7.0 mi NNW 4.6 mph - N/A   Overcast
10:15 AM 64.4 °F 57.2 °F 77% 30.24 in 8.0 mi North 5.8 mph - N/A   Overcast
11:41 AM 69.8 °F 59.0 °F 68% 30.23 in 10.0 mi North 6.9 mph - N/A   Overcast
11:53 AM 69.1 °F 57.9 °F 68% 30.22 in 10.0 mi NNW 8.1 mph - N/A   Overcast
12:53 PM 70.0 °F 59.0 °F 68% 30.18 in 10.0 mi NNW 6.9 mph - N/A   Overcast
1:53 PM 71.1 °F 57.9 °F 63% 30.16 in 10.0 mi NNW 6.9 mph - N/A   Mostly Cloudy
2:53 PM 71.1 °F 59.0 °F 66% 30.16 in 10.0 mi NNW 4.6 mph - N/A   Overcast
3:31 PM 71.6 °F 57.2 °F 60% 30.17 in 10.0 mi Variable 3.5 mph - N/A   Overcast
3:53 PM 72.0 °F 57.9 °F 61% 30.16 in 10.0 mi NNE 3.5 mph - N/A   Overcast
4:53 PM 71.1 °F 59.0 °F 66% 30.16 in 10.0 mi Calm Calm - N/A   Overcast
5:53 PM 69.1 °F 55.0 °F 61% 30.17 in 10.0 mi NW 5.8 mph - N/A   Overcast
6:53 PM 66.9 °F 54.0 °F 63% 30.18 in 10.0 mi NNW 4.6 mph - N/A   Overcast
7:53 PM 66.0 °F 54.0 °F 65% 30.20 in 10.0 mi North 4.6 mph - N/A   Overcast
8:45 PM 64.4 °F 57.2 °F 77% 30.21 in 10.0 mi Variable 5.8 mph - N/A   Overcast
8:53 PM 64.9 °F 57.9 °F 78% 30.21 in 10.0 mi NNE 10.4 mph - N/A   Overcast
9:09 PM 64.4 °F 59.0 °F 83% 30.22 in 8.0 mi NNE 8.1 mph 16.1 mph N/A   Overcast
9:53 PM 62.1 °F 57.0 °F 84% 30.22 in 9.0 mi NE 6.9 mph - N/A   Overcast
10:53 PM 60.1 °F 55.0 °F 83% 30.23 in 9.0 mi Variable 3.5 mph - N/A   Overcast
11:53 PM 59.0 °F 54.0 °F 83% 30.24 in 10.0 mi Variable 5.8 mph - N/A   Overcast